sat.trackr.live / text

‹ back to catalog

STARLINK-34800

NORAD 65361 · 2025-190L

PAYLOAD ACTIVE UNKNOWN

§ Identity

Operator
Country
US
Launch date
2025-08-28
Launch site
AFETR
Launch vehicle
Mass (kg)
RCS (m²)

Purposes: comms

External: N2YO · Heavens-Above · Gunter

§ Orbital elements

Epoch: 2026-05-25T01:35:09.903840Z

Period
94.11 min
Inclination
53.1589°
Eccentricity
0.0001208
Mean motion
15.30202562 rev/d
Perigee alt
474.4 km
Apogee alt
476.0 km
Semi-major
6,853.3 km
B*
4.1089e-4
RAAN
173.0679°
Arg perigee
82.8377°
Mean anomaly
277.2761°
Rev number
4,098

§ Raw data

STARLINK-348001 65361U 25190L   26145.06608685  .00011831  00000+0  41089-3 0  99932 65361  53.1589 173.0679 0001208  82.8377 277.2761 15.30202562 40982

JSON: /api/v1/satellites/65361 · /tle

For live sub-satellite position, see the globe view (requires WebGL).

§ Visibility from observer

Set your observer location to see the next 7 days of passes ≥ 10°. The values pass through the URL so the page stays shareable.

No JS? Fill the form by hand. The geolocation button needs JavaScript.